Regional Weather Roundup
Issued by NWS

Home | Current Version | Previous Version | Text Only | Print | Product List | Glossary Off
Versions: 1 2 3 4 5 6 7 8 9 10 11 12 13 14 15 16 17 18 19 20 21 22 23 24 25 26 27 28 29 30 31 32 33 34 35 36 37 38 39 40 41 42 43 44 45 46 47 48 49 50

000
ASUS43 KLSX 292259
RWRMO

WEATHER SUMMARY FOR MISSOURI
NATIONAL WEATHER SERVICE SPRINGFIELD MO
600 PM CDT WED JUL 29 2015

NOTE: "FAIR" INDICATES FEW OR NO CLOUDS BELOW 12,000 FEET WITH NO
       SIGNIFICANT WEATHER AND/OR OBSTRUCTIONS TO VISIBILITY.
       CURRENT SKY AND/OR WEATHER CONDITIONS ARE NOT AVAILABLE FOR
       CHILLICOTHE AND FARMINGTON.

MOZ001>031-035>038-043-044-053-054-300000-
...NORTHERN AND WESTERN MISSOURI...

CITY           SKY/WX    TMP DP  RH WIND       PRES   REMARKS
KANSAS CTY INT PTSUNNY   82  69  64 N5        30.14S
KANSAS C DTWN  MOSUNNY   86  66  51 N7        30.12R
LEE`S SUMMIT   MOSUNNY   84  64  50 E5        30.13S
ST JOSEPH      MOSUNNY   84  65  52 CALM      30.15R
CHILLICOTHE      N/A     86  65  49 NW3       30.14R
KIRKSVILLE     MOSUNNY   81  58  45 NW6       30.12F

$$
MOZ066>068-077>081-088>096-101>105-300000-
...SOUTHWEST MISSOURI...

CITY           SKY/WX    TMP DP  RH WIND       PRES   REMARKS
SPRINGFIELD    SUNNY     87  70  56 N15       30.08S HX  92
JOPLIN         SUNNY     87  73  62 NE12G17   30.07S HX  94

$$
MOZ032>034-039>042-045>050-055>058-069>072-300000-
...CENTRAL MISSOURI...

CITY           SKY/WX    TMP DP  RH WIND       PRES   REMARKS
COLUMBIA       SUNNY     85  65  51 N10       30.10F
JEFFERSON CITY SUNNY     86  63  45 N7        30.07F
ROLLA          SUNNY     85  67  54 N10       30.08S
SEDALIA        MOSUNNY   83  63  50 N8        30.12F
OSAGE BEACH    SUNNY     84  66  54 N7        30.10R

$$
MOZ051-052-059>065-300000-
...EAST CENTRAL MISSOURI...

CITY           SKY/WX    TMP DP  RH WIND       PRES   REMARKS
ST LOUIS INTL  MOSUNNY   88  65  46 N12       30.04S HX  90
SPIRIT OF STL  MOSUNNY   87  61  41 N10       30.04R
ST CHARLES     SUNNY     86  67  52 N12       30.04S

$$
MOZ072>076-082>087-097>100-106>115-300000-
...SOUTH CENTRAL AND SOUTHEAST MISSOURI...

CITY           SKY/WX    TMP DP  RH WIND       PRES   REMARKS
CAPE GIRARDEAU CLOUDY    87  76  69 N6        29.98S HX  97
FARMINGTON     SUNNY     88  70  55 N12       30.08S HX  92
POPLAR BLUFF   MOSUNNY   92  79  65 NE15G23   29.97R HX 108
WEST PLAINS    MOSUNNY   87  74  64 N14       30.07R HX  95

$$



USA.gov is the U.S. government's official web portal to all federal, state and local government web resources and services.